Weather History for Newport News, VA

Change the Weather History Date:

Wednesday, January 22, 2014

  Actual Average Record
Temperature  
Mean Temperature 18 °F -  
Max Temperature 24 °F 47 °F 71 °F (1999)
Min Temperature 12 °F 31 °F 9 °F (1970)
Degree Days  
Heating Degree Days 47    
Moisture  
Dew Point 5 °F    
Average Humidity 54    
Maximum Humidity 77    
Minimum Humidity 29    
Precipitation  
Precipitation 0.01 in - - ()
Sea Level Pressure  
Sea Level Pressure 29.94 in    
Wind  
Wind Speed 14 mph (NNW)    
Max Wind Speed 23 mph    
Max Gust Speed 33 mph    
Visibility 8 miles    
Events Snow    
Averages and records for this station are not official NWS values.
T = Trace of Precipitation, MM = Missing Value Source: NWS Daily Summary

Daily Weather History Graph

Daily Weather History Graph

Search for Another Location

Airport:

Trip Planner

Search our weather history database for the weather conditions in past years. The results will help you decide how hot, cold, wet, or windy it might be!

Date:

Astronomy

Jan. 22, 2014 Rise Set
Actual Time 7:15 AM EST 5:19 PM EST
Civil Twilight 6:47 AM EST 5:47 PM EST
Nautical Twilight 6:15 AM EST 6:19 PM EST
Astronomical Twilight 5:45 AM EST 6:50 PM EST
Moon 11:40 PM EST (1/22) 10:24 AM EST (1/22)
Length of Visible Light 11h 00m
Length of Day
10h 04m
Waning Gibbous, 65% of the Moon is Illuminated
Jan 22
Waning Gibbous
Jan 24
Last Quarter
Jan 30
New
Feb 6
First Quarter
Feb 14
Full

Hourly Weather History & Observations

Time (EST) Temp. Windchill Dew Point Humidity Pressure Visibility Wind Dir Wind Speed Gust Speed Precip Events Conditions
12:46 AM 24.8 °F 12.9 °F 17.6 °F 74% 29.78 in 1.0 mi North 13.8 mph 27.6 mph 0.01 in Snow Light Snow
12:54 AM 24.1 °F 8.7 °F 18.0 °F 77% 29.78 in 0.8 mi NNW 23.0 mph 28.8 mph 0.01 in Snow Light Snow
1:10 AM 24.8 °F 11.5 °F 17.6 °F 74% 29.78 in 1.0 mi North 17.3 mph 24.2 mph 0.00 in Snow Light Snow
1:38 AM 23.0 °F 7.6 °F 15.8 °F 74% 29.79 in 1.0 mi NNW 21.9 mph 33.4 mph 0.00 in Snow Light Snow
1:54 AM 23.0 °F 7.6 °F 15.1 °F 72% 29.81 in 1.0 mi NNW 21.9 mph 29.9 mph 0.00 in Snow Light Snow
2:32 AM 21.2 °F 7.3 °F 14.0 °F 74% 29.82 in 2.5 mi NNW 16.1 mph 27.6 mph 0.00 in Snow Light Snow
2:54 AM 21.0 °F 5.4 °F 14.0 °F 74% 29.82 in 2.5 mi NNW 20.7 mph 29.9 mph 0.00 in Snow Light Snow
3:05 AM 21.2 °F 6.4 °F 12.2 °F 68% 29.82 in 4.0 mi NNW 18.4 mph 25.3 mph 0.00 in Snow Light Snow
3:16 AM 21.2 °F 6.0 °F 10.4 °F 63% 29.82 in 8.0 mi NNW 19.6 mph 29.9 mph 0.00 in Snow Light Snow
3:54 AM 21.0 °F 8.1 °F 5.0 °F 50% 29.84 in 10.0 mi NNW 13.8 mph 32.2 mph 0.00 in   Mostly Cloudy
4:54 AM 19.9 °F 7.9 °F 5.0 °F 52% 29.84 in 10.0 mi NW 11.5 mph 20.7 mph N/A   Overcast
5:54 AM 18.0 °F 5.4 °F 1.9 °F 50% 29.86 in 10.0 mi NW 11.5 mph 20.7 mph 0.00 in   Clear
6:54 AM 16.0 °F 3.6 °F 1.0 °F 52% 29.90 in 10.0 mi NW 10.4 mph - N/A   Clear
7:54 AM 16.0 °F 0.6 °F 1.0 °F 52% 29.93 in 10.0 mi NW 16.1 mph 25.3 mph N/A   Clear
8:54 AM 17.1 °F 5.0 °F -0.0 °F 47% 29.97 in 9.0 mi NW 10.4 mph 26.5 mph 0.00 in Snow Light Snow
9:54 AM 18.0 °F 4.2 °F -0.9 °F 44% 29.99 in 10.0 mi NNW 13.8 mph - 0.00 in   Clear
10:54 AM 19.0 °F 5.6 °F -2.0 °F 40% 30.01 in 10.0 mi NNW 13.8 mph 24.2 mph N/A   Clear
11:54 AM 21.0 °F 9.9 °F -2.0 °F 36% 30.00 in 10.0 mi NW 10.4 mph - N/A   Clear
12:54 PM 21.9 °F 7.8 °F -2.0 °F 35% 29.99 in 10.0 mi WNW 17.3 mph 24.2 mph N/A   Clear
1:54 PM 23.0 °F 11.1 °F -2.9 °F 32% 29.99 in 10.0 mi NW 12.7 mph - 0.00 in   Clear
2:54 PM 24.1 °F 13.1 °F -2.9 °F 31% 29.98 in 10.0 mi NW 11.5 mph - N/A   Clear
3:54 PM 24.1 °F 12.5 °F -4.0 °F 29% 30.01 in 10.0 mi NW 12.7 mph - N/A   Clear
4:54 PM 24.1 °F 13.1 °F -2.9 °F 31% 30.03 in 10.0 mi NW 11.5 mph - N/A   Clear
5:54 PM 21.9 °F 15.7 °F -2.9 °F 34% 30.06 in 10.0 mi NW 4.6 mph - N/A   Clear
6:54 PM 19.9 °F 13.4 °F -2.9 °F 37% 30.07 in 10.0 mi North 4.6 mph - N/A   Clear
7:54 PM 18.0 °F - 1.9 °F 50% 30.08 in 10.0 mi Calm Calm - N/A   Clear
8:54 PM 12.9 °F - 3.9 °F 67% 30.09 in 10.0 mi Calm Calm - N/A   Clear
9:54 PM 14.0 °F - -0.9 °F 52% 30.11 in 10.0 mi Calm Calm - N/A   Clear
10:54 PM 12.0 °F - 3.0 °F 67% 30.13 in 10.0 mi Calm Calm - N/A   Partly Cloudy
11:54 PM 12.9 °F - 5.0 °F 71% 30.13 in 10.0 mi Calm Calm - N/A   Scattered Clouds